Date,TemperatureHighF,TemperatureAvgF,TemperatureLowF,DewpointHighF,DewpointAvgF,DewpointLowF,HumidityHigh,HumidityAvg,HumidityLow,PressureMaxIn,PressureMinIn,WindSpeedMaxMPH,WindSpeedAvgMPH,GustSpeedMaxMPH,PrecipitationSumIn
2013-1-1,29,21,8,25,12,-1,92,68,52,29.84,29.58,12,2,17,0.00
2013-1-2,16,7,-2,3,-3,-9,84,65,48,30.02,29.82,10,1,17,0.00
2013-1-3,19,6,-8,6,-2,-11,87,71,49,30.07,29.92,5,0,9,0.00
2013-1-4,31,20,6,26,15,1,87,81,73,29.92,29.68,5,0,7,0.00
2013-1-5,33,25,9,26,15,6,88,68,45,30.26,29.69,11,2,18,0.00
2013-1-6,25,18,8,22,15,5,93,88,82,30.23,29.91,3,1,5,0.00
2013-1-7,24,15,4,22,11,1,93,84,66,30.39,29.96,10,3,10,0.00
2013-1-8,32,16,1,24,13,-1,95,86,70,30.36,30.18,3,0,7,0.00
2013-1-9,34,23,9,30,21,7,96,91,82,30.41,29.86,1,0,2,0.00
2013-1-10,42,36,26,31,26,20,96,70,55,30.53,29.86,18,3,22,0.07
2013-1-11,35,27,16,26,20,14,94,77,56,30.54,30.26,3,0,5,0.00
2013-1-12,38,34,32,37,34,27,98,96,80,30.26,30.10,2,0,2,0.01
2013-1-13,38,36,35,37,36,34,99,98,98,30.16,29.93,4,0,4,0.01
2013-1-14,48,39,34,48,36,26,99,88,63,30.22,29.84,4,0,10,0.01
2013-1-15,36,32,28,28,24,21,90,74,55,30.32,30.19,3,0,6,0.00
2013-1-16,28,27,26,27,24,20,96,90,74,30.27,29.78,6,1,9,0.00
2013-1-17,34,22,9,32,16,-1,96,79,51,30.16,29.75,9,1,14,0.00
2013-1-18,12,6,-6,1,-4,-11,86,66,43,30.38,30.13,9,2,16,0.00
2013-1-19,31,20,1,24,15,-3,89,80,66,30.34,29.88,4,1,12,0.00
2013-1-20,41,30,19,33,22,4,95,73,44,29.86,29.41,9,2,19,0.12
2013-1-21,20,15,8,7,0,-5,67,52,34,30.03,29.86,6,1,13,0.00
2013-1-22,13,8,4,1,-3,-15,78,62,40,30.00,29.81,8,2,12,0.00
2013-1-23,3,-1,-7,-13,-17,-18,62,48,39,30.07,29.99,6,2,16,0.00
2013-1-24,10,5,1,-9,-11,-14,57,48,35,30.08,29.90,9,4,14,0.00
2013-1-25,16,9,2,1,-3,-10,73,59,44,30.17,30.07,8,2,15,0.00
2013-1-26,19,11,2,3,-3,-7,79,57,34,30.10,29.98,11,2,12,0.00
2013-1-27,21,12,5,3,0,-4,74,58,45,30.41,30.10,9,1,14,0.00
2013-1-28,26,16,2,18,5,-4,92,66,29,30.41,30.08,3,0,10,0.00
2013-1-29,32,22,7,28,18,5,92,84,68,30.21,30.08,4,0,5,0.00
2013-1-30,45,37,30,45,37,28,99,97,93,30.15,29.42,4,0,7,0.26
2013-1-31,54,44,29,54,37,12,99,80,46,29.41,28.80,14,4,21,0.34
2013-2-1,28,21,12,11,6,0,63,53,44,30.03,29.41,8,3,14,0.00
2013-2-2,24,17,9,14,4,-2,81,59,45,30.18,30.02,5,1,11,0.00
2013-2-3,27,21,15,16,14,12,88,74,55,30.06,29.70,12,4,16,0.00
2013-2-4,25,19,12,14,6,-8,86,58,36,29.83,29.62,7,2,20,0.00
2013-2-5,19,13,6,7,-4,-8,70,48,33,30.02,29.84,7,1,12,0.00
2013-2-6,32,19,12,23,8,-3,75,62,35,30.26,29.91,11,2,12,0.00
2013-2-7,15,10,5,-2,-8,-12,58,45,29,30.59,30.27,8,2,13,0.00
2013-2-8,12,9,5,9,2,-10,89,75,44,30.60,30.01,17,7,20,0.00
2013-2-9,17,13,9,12,10,7,90,87,72,30.12,29.80,22,8,33,0.00
2013-2-10,32,18,5,12,6,0,90,61,33,30.35,30.12,11,2,20,0.00
2013-2-11,28,17,0,27,15,-2,96,90,74,30.34,29.58,7,1,8,0.00
2013-2-12,37,32,24,36,30,23,97,94,85,29.75,29.52,2,0,10,0.18
2013-2-13,40,35,29,31,26,22,88,71,49,29.79,29.73,7,1,11,0.05
2013-2-14,37,28,19,24,20,17,94,74,49,30.00,29.73,8,1,18,0.00
2013-2-15,41,29,18,32,26,17,96,86,68,30.00,29.88,5,0,10,0.02
2013-2-16,32,30,25,30,26,12,97,88,57,29.95,29.80,9,2,13,0.00
2013-2-17,25,20,17,18,12,6,89,70,58,29.80,29.18,17,6,30,0.00
2013-2-18,26,19,12,6,3,0,62,51,39,29.99,29.40,17,4,22,0.00
2013-2-19,40,28,14,39,14,1,97,60,27,30.09,29.61,6,1,10,0.30
2013-2-20,41,34,26,41,27,17,98,77,61,29.60,29.39,7,2,14,0.27
2013-2-21,31,25,18,25,17,7,82,71,60,30.15,29.60,16,3,16,0.00
2013-2-22,35,30,24,24,22,20,88,73,57,30.40,30.16,8,2,19,0.00
2013-2-23,33,28,23,31,26,20,95,90,84,30.37,30.05,4,1,9,0.00
2013-2-24,30,28,26,29,27,25,97,96,93,30.04,29.82,6,2,11,0.00
2013-2-25,37,30,24,30,26,23,96,88,67,30.25,29.92,7,1,11,0.06
2013-2-26,41,32,22,31,26,20,97,82,56,30.36,30.26,5,0,11,0.19
2013-2-27,38,30,20,31,26,18,97,87,58,30.29,29.75,13,3,15,0.00
2013-2-28,37,33,30,36,33,29,98,98,97,29.75,29.57,11,5,14,0.03
2013-3-1,33,31,30,33,31,29,98,97,95,29.68,29.56,12,2,12,0.00
2013-3-2,38,33,30,33,31,29,97,92,80,29.65,29.61,9,1,13,0.02
2013-3-3,41,36,32,36,32,29,97,86,69,29.62,29.51,7,1,13,0.17
2013-3-4,34,32,31,31,29,25,96,86,72,29.71,29.50,8,2,13,0.01
2013-3-5,41,36,32,36,34,31,97,91,78,30.14,29.71,9,3,17,0.18
2013-3-6,37,34,32,33,30,25,96,86,73,30.30,30.15,12,7,17,0.01
2013-3-7,35,32,31,27,25,24,80,75,67,30.27,30.14,20,9,23,0.00
2013-3-8,44,36,29,26,24,22,81,63,42,30.25,30.11,21,8,26,0.00
2013-3-9,44,34,25,28,25,22,89,69,49,30.40,30.23,13,3,16,0.00
2013-3-10,41,31,20,31,26,19,95,82,62,30.43,30.30,4,1,8,0.00
2013-3-11,44,37,33,37,34,30,96,86,69,30.30,30.15,5,1,10,0.00
2013-3-12,47,43,38,46,42,37,98,97,94,30.14,29.74,7,1,11,0.43
2013-3-13,47,40,30,47,37,26,99,89,66,29.75,29.67,4,0,12,0.06
2013-3-14,39,31,21,29,22,10,96,72,51,29.74,29.61,8,2,13,0.00
2013-3-15,32,24,14,22,11,6,83,58,39,29.78,29.59,8,2,11,0.00
2013-3-16,31,26,14,25,14,9,93,63,39,29.89,29.61,8,2,14,0.00
2013-3-17,27,21,13,11,4,-4,86,52,31,30.29,29.89,10,3,18,0.00
2013-3-18,33,21,7,18,5,-1,84,55,27,30.43,30.28,6,1,12,0.00
2013-3-19,28,24,22,24,21,16,95,87,62,30.29,29.72,12,5,14,0.00
2013-3-20,34,26,19,29,22,18,95,85,62,29.72,29.57,10,2,13,0.00
2013-3-21,37,27,8,22,17,6,96,70,38,29.75,29.62,4,1,9,0.01
2013-3-22,38,27,10,21,16,8,93,68,39,29.64,29.57,9,1,13,0.01
2013-3-23,39,32,22,26,21,16,85,66,49,29.64,29.46,12,3,18,0.01
2013-3-24,43,36,25,28,26,22,92,68,50,29.79,29.62,16,2,16,0.00
2013-3-25,42,34,22,31,27,21,95,76,55,29.79,29.62,12,3,12,0.00
2013-3-26,46,38,31,30,27,24,83,65,47,29.73,29.59,13,3,18,0.00
2013-3-27,42,36,29,38,32,27,96,86,69,29.89,29.71,10,1,19,0.15
2013-3-28,48,39,32,37,33,30,98,82,54,29.97,29.89,6,1,10,0.00
2013-3-29,50,43,34,37,34,31,93,72,51,30.00,29.94,9,1,11,0.00
2013-3-30,49,39,28,34,25,18,96,64,30,30.08,29.98,7,1,12,0.00
2013-3-31,50,38,24,36,25,20,92,63,31,30.12,29.85,6,1,12,0.00
2013-4-1,47,38,31,42,36,25,97,91,74,29.84,29.47,7,1,11,0.60
2013-4-2,34,30,25,26,15,11,86,55,39,29.79,29.67,10,2,17,0.00
2013-4-3,38,31,25,23,16,11,89,54,42,30.02,29.77,13,3,19,0.00
2013-4-4,47,37,29,27,16,8,84,44,24,30.19,29.95,7,2,14,0.00
2013-4-5,53,40,30,29,26,20,90,61,32,29.94,29.67,12,2,15,0.00
2013-4-6,37,31,25,22,10,2,63,42,25,30.34,29.82,11,3,22,0.00
2013-4-7,44,37,25,38,25,13,86,63,43,30.34,29.92,11,2,17,0.00
2013-4-8,53,45,36,38,35,32,89,71,50,30.15,29.88,9,2,17,0.00
2013-4-9,42,39,35,41,38,33,98,95,87,30.14,29.93,5,1,7,0.19
2013-4-10,55,44,38,45,39,37,98,86,55,29.99,29.90,5,1,8,0.08
2013-4-11,47,41,35,38,24,14,92,54,27,30.21,29.89,14,3,18,0.00
2013-4-12,38,34,33,32,23,15,96,68,47,30.28,29.94,8,3,10,0.07
2013-4-13,42,36,32,38,34,31,97,92,78,29.94,29.82,6,2,9,0.21
2013-4-14,45,40,34,42,38,31,98,92,79,30.18,29.90,6,1,8,0.10
2013-4-15,53,42,30,41,35,30,97,78,48,30.41,30.18,6,1,11,0.00
2013-4-16,53,47,40,45,40,37,94,79,59,30.43,29.93,8,2,14,0.00
2013-4-17,57,49,38,47,32,23,97,54,28,30.37,29.95,12,2,16,0.00
2013-4-18,49,42,31,38,29,23,87,63,40,30.50,30.11,6,1,11,0.00
2013-4-19,67,57,48,58,51,35,95,83,62,30.11,29.62,9,3,16,0.00
2013-4-20,59,51,41,58,40,26,97,70,40,30.15,29.56,8,2,16,0.47
2013-4-21,47,40,32,28,23,15,79,52,29,30.73,30.16,12,2,17,0.00
2013-4-22,50,39,28,32,24,15,88,59,26,30.84,30.69,6,2,16,0.00
2013-4-23,48,39,29,41,35,28,97,87,64,30.69,30.25,9,2,11,0.00
2013-4-24,55,47,42,51,46,40,97,93,84,30.24,29.79,10,3,15,0.02
2013-4-25,56,50,39,48,37,24,97,66,30,30.32,29.77,11,2,16,0.05
2013-4-26,57,46,33,35,32,27,91,62,32,30.46,30.32,8,1,14,0.00
2013-4-27,61,48,35,40,36,31,95,67,34,30.44,30.29,6,1,9,0.00
2013-4-28,65,52,37,42,36,32,94,60,32,30.35,30.23,7,1,11,0.00
2013-4-29,64,53,39,46,40,34,91,64,36,30.29,30.21,7,1,11,0.00
2013-4-30,68,54,40,47,40,29,96,64,35,30.38,30.27,5,1,8,0.00
2013-5-1,72,56,40,42,36,28,86,51,24,30.46,30.38,6,1,10,0.00
2013-5-2,67,55,42,46,40,36,91,61,34,30.54,30.42,10,2,12,0.00
2013-5-3,66,53,41,47,43,37,89,70,45,30.58,30.38,9,3,11,0.00
2013-5-4,66,52,40,45,39,26,96,68,23,30.42,30.27,6,2,13,0.00
2013-5-5,66,52,38,43,40,35,93,66,33,30.35,30.22,6,2,12,0.00
2013-5-6,67,54,40,47,43,38,96,71,39,30.27,30.14,8,2,13,0.00
2013-5-7,73,58,46,54,49,45,97,76,41,30.18,30.07,8,2,11,0.00
2013-5-8,73,62,52,59,55,51,98,81,48,30.25,30.15,7,1,13,0.00
2013-5-9,63,58,55,60,56,54,98,95,88,30.15,29.91,4,0,6,0.48
2013-5-10,72,60,53,63,57,53,98,91,62,29.96,29.90,7,1,7,0.05
2013-5-11,62,57,53,60,56,52,98,97,95,29.95,29.68,4,1,12,0.43
2013-5-12,59,56,45,59,54,43,98,95,81,29.72,29.55,8,1,12,0.20
2013-5-13,55,48,38,43,36,30,95,65,39,30.01,29.72,7,1,17,0.00
2013-5-14,55,47,38,38,33,30,87,61,40,30.04,29.95,13,2,20,0.00
2013-5-15,61,50,38,49,38,27,97,69,29,30.00,29.66,9,2,14,0.15
2013-5-16,72,60,49,57,48,40,98,68,32,29.80,29.56,9,1,12,0.00
2013-5-17,61,53,45,46,42,37,92,67,43,30.21,29.80,15,3,21,0.00
2013-5-18,62,52,41,51,44,40,96,76,53,30.34,30.21,6,1,8,0.00
2013-5-19,65,52,44,52,47,42,95,84,61,30.39,30.24,5,1,8,0.00
2013-5-20,68,58,50,62,55,48,98,92,77,30.23,29.92,3,0,8,0.55
2013-5-21,58,54,51,57,53,50,97,96,91,30.11,29.96,4,1,8,0.71
2013-5-22,56,52,49,53,51,48,97,94,89,30.06,29.94,6,2,8,0.31
2013-5-23,66,58,49,62,56,48,98,94,86,29.96,29.80,4,1,9,0.05
2013-5-24,67,59,49,66,58,48,98,97,90,29.88,29.65,11,1,17,1.31
2013-5-25,50,47,46,49,47,45,98,97,96,29.87,29.73,16,6,23,0.84
2013-5-26,52,47,44,49,45,42,98,94,73,29.96,29.66,12,2,13,0.27
2013-5-27,64,53,40,44,39,33,96,65,33,30.16,29.95,12,2,16,0.00
2013-5-28,70,56,40,50,43,39,97,66,36,30.24,30.16,7,1,9,0.00
2013-5-29,57,53,49,56,51,43,98,93,78,30.22,30.00,4,0,7,0.06
2013-5-30,80,66,54,66,60,54,98,82,51,30.04,29.97,7,1,12,0.00
2013-5-31,88,74,58,69,65,58,97,77,50,30.05,29.88,6,1,8,0.00
2013-6-1,88,76,64,72,67,63,96,77,51,29.92,29.79,4,0,7,0.00
2013-6-2,85,74,66,72,68,64,97,83,62,29.81,29.64,6,1,14,0.23
2013-6-3,75,68,61,68,64,52,98,87,67,29.80,29.68,6,1,10,0.00
2013-6-4,64,58,51,51,46,42,88,65,47,30.04,29.78,10,2,16,0.00
2013-6-5,70,59,50,46,43,37,80,56,30,30.17,30.04,7,1,13,0.00
2013-6-6,69,58,48,53,48,42,95,70,44,30.23,30.15,4,1,6,0.00
2013-6-7,63,57,52,54,51,44,97,81,50,30.16,30.00,6,1,9,0.45
2013-6-8,66,58,54,60,56,53,97,92,79,29.98,29.71,14,4,16,0.96
2013-6-9,72,63,55,63,57,53,97,83,63,30.16,29.98,4,1,7,0.00
2013-6-10,72,63,53,61,56,51,96,78,52,30.23,30.06,5,1,7,0.00
2013-6-11,59,56,54,56,55,54,97,95,89,30.05,29.57,9,3,14,1.04
2013-6-12,59,57,54,57,55,54,98,96,89,29.77,29.52,10,2,14,0.32
2013-6-13,69,61,55,58,53,48,98,78,48,29.81,29.72,7,1,10,0.00
2013-6-14,74,62,54,59,55,52,97,79,49,29.75,29.64,6,1,12,0.00
2013-6-15,73,64,53,54,47,41,88,56,34,29.88,29.73,7,2,12,0.00
2013-6-16,75,64,54,60,54,47,96,72,48,29.89,29.72,8,1,9,0.04
2013-6-17,76,65,57,65,60,56,98,86,55,29.86,29.72,6,1,10,0.07
2013-6-18,66,61,54,58,54,49,97,79,55,29.99,29.86,6,1,9,0.00
2013-6-19,70,61,50,54,48,42,95,66,36,30.15,29.94,8,2,14,0.00
2013-6-20,73,63,50,54,50,47,95,65,40,30.26,30.15,7,1,9,0.00
2013-6-21,80,66,55,61,55,51,94,69,40,30.23,30.16,6,1,9,0.00
2013-6-22,74,67,60,67,63,56,95,86,67,30.21,30.11,5,0,7,0.00
2013-6-23,77,69,64,72,68,63,97,94,85,30.14,29.95,3,0,5,0.14
2013-6-24,84,75,66,73,69,64,98,83,61,29.95,29.81,7,1,9,0.01
2013-6-25,86,75,66,73,68,63,97,79,61,29.85,29.71,5,1,11,1.22
2013-6-26,74,68,63,70,66,62,98,95,86,29.88,29.70,8,2,10,0.23
2013-6-27,67,63,59,64,61,58,98,95,89,29.89,29.84,4,1,8,0.01
2013-6-28,65,61,58,65,61,58,99,97,96,29.87,29.57,10,3,13,1.68
2013-6-29,73,68,64,71,67,64,99,97,92,29.70,29.56,3,0,7,0.04
2013-6-30,79,70,62,73,68,62,99,92,77,29.92,29.68,4,1,8,0.10
2013-7-1,75,71,66,72,69,66,98,95,85,30.12,29.93,5,1,5,0.15
2013-7-2,70,61,58,69,60,57,98,96,92,30.24,30.11,10,4,13,0.40
2013-7-3,78,67,58,74,65,57,98,94,84,30.21,30.10,6,1,7,0.00
2013-7-4,84,77,68,76,72,68,99,86,66,30.16,30.05,4,0,7,0.05
2013-7-5,86,78,70,77,73,69,98,85,62,30.10,29.99,4,0,8,0.01
2013-7-6,85,78,71,74,70,63,96,79,60,30.03,29.92,10,1,10,0.00
2013-7-7,84,77,69,72,68,63,85,73,58,29.97,29.90,4,0,10,0.00
2013-7-8,74,68,61,70,65,58,97,88,78,30.09,29.90,8,2,12,0.50
2013-7-9,76,70,65,69,66,63,98,89,76,30.13,30.08,6,1,8,0.00
2013-7-10,70,66,63,67,65,62,98,94,87,30.10,29.78,5,1,9,0.21
2013-7-11,74,70,67,73,68,61,98,93,73,29.99,29.75,3,0,6,0.33
2013-7-12,75,68,60,63,59,56,94,76,55,30.22,29.99,9,2,9,0.00
2013-7-13,80,70,59,68,62,56,97,77,48,30.32,30.22,5,1,7,0.00
2013-7-14,84,74,63,74,68,60,95,81,61,30.29,30.17,4,1,5,0.00
2013-7-15,88,78,67,74,70,66,97,76,53,30.19,30.06,4,1,9,0.00
2013-7-16,88,79,71,74,70,67,93,75,53,30.16,30.10,6,1,9,0.00
2013-7-17,86,77,67,76,71,66,96,82,65,30.17,29.93,6,1,11,0.69
2013-7-18,82,74,68,75,70,67,98,87,66,30.02,29.93,6,1,9,0.90
2013-7-19,88,77,69,80,73,68,98,88,69,29.95,29.61,6,1,12,0.10
2013-7-20,84,74,64,76,71,62,98,91,62,29.79,29.59,2,0,8,0.49
2013-7-21,74,68,62,66,61,57,96,80,64,30.04,29.79,8,1,10,0.00
2013-7-22,73,66,60,66,60,55,97,83,65,30.07,29.95,7,1,9,0.00
2013-7-23,68,64,60,67,62,58,98,95,89,29.94,29.55,7,1,8,1.63
2013-7-24,78,68,58,73,64,51,99,86,64,30.00,29.56,5,1,10,0.05
2013-7-25,71,63,53,62,55,48,88,77,62,30.14,30.00,8,2,10,0.00
2013-7-26,68,65,61,66,62,59,96,93,81,30.12,29.92,9,2,13,0.14
2013-7-27,78,70,63,70,64,61,95,81,64,30.04,29.92,8,1,10,0.00
2013-7-28,76,69,63,70,65,62,98,88,70,30.06,30.02,10,1,11,0.01
2013-7-29,74,68,62,70,66,62,98,93,83,30.06,30.00,3,1,9,0.24
2013-7-30,76,68,62,65,61,57,98,81,54,30.07,30.01,5,1,10,0.00
2013-7-31,78,69,60,65,61,57,92,75,56,30.12,30.01,4,1,9,0.00
2013-8-1,77,68,60,66,62,59,96,82,62,30.05,29.89,5,1,10,0.00
2013-8-2,72,65,61,68,64,60,98,95,82,29.88,29.74,6,1,9,0.88
2013-8-3,74,64,61,66,62,59,99,92,62,29.83,29.72,3,0,8,0.09
2013-8-4,74,64,56,63,59,53,96,83,55,29.83,29.74,5,1,8,0.05
2013-8-5,69,62,55,55,53,46,92,73,56,30.02,29.82,7,2,10,0.00
2013-8-6,74,64,53,60,55,49,93,73,51,30.16,30.02,4,0,7,0.00
2013-8-7,75,66,55,62,57,53,96,75,51,30.20,30.13,6,1,9,0.00
2013-8-8,70,65,61,67,63,60,97,93,86,30.13,30.03,4,1,7,0.09
2013-8-9,71,68,66,70,67,66,98,98,96,30.03,29.73,3,0,8,3.25
2013-8-10,75,69,58,69,59,51,99,74,45,29.98,29.73,6,1,12,0.00
2013-8-11,75,64,54,59,56,52,93,75,52,30.04,29.96,5,1,9,0.00
2013-8-12,76,68,58,64,60,56,95,77,53,30.00,29.89,3,0,8,0.00
2013-8-13,75,65,59,67,63,58,98,92,77,29.91,29.71,4,1,9,0.37
2013-8-14,73,66,58,67,60,51,98,82,58,29.87,29.62,7,2,11,0.08
2013-8-15,72,63,54,59,54,50,92,74,52,30.08,29.86,8,1,9,0.00
2013-8-16,74,65,55,61,58,54,97,79,50,30.19,30.07,3,1,8,0.00
2013-8-17,74,65,58,59,57,53,97,77,50,30.28,30.19,6,1,7,0.00
2013-8-18,75,65,54,66,60,53,97,85,61,30.28,30.05,7,0,7,0.00
2013-8-19,81,70,58,68,63,57,97,80,56,30.05,29.87,7,1,10,0.00
2013-8-20,81,72,63,69,65,61,95,81,60,30.07,29.95,4,0,6,0.00
2013-8-21,82,73,64,71,67,63,97,82,60,30.12,29.98,3,0,7,0.00
2013-8-22,83,74,65,71,67,64,96,81,57,29.98,29.76,7,1,9,0.00
2013-8-23,73,68,58,67,57,50,94,69,47,30.16,29.77,13,2,14,0.00
2013-8-24,74,63,52,58,53,47,95,72,39,30.31,30.16,8,1,15,0.00
2013-8-25,75,65,53,61,56,51,97,75,50,30.36,30.14,3,0,6,0.00
2013-8-26,74,67,61,68,63,58,96,89,78,30.14,29.87,3,0,8,0.01
2013-8-27,74,66,63,68,64,62,98,93,78,29.89,29.85,3,0,4,0.00